CZ-3B DEB, 42459

Orbit data source: Space-Track

CZ-3B DEB, 42459 is space debris in HEO originally from a launch on Sat, 04 Sep 2010 UTC launched from the Xichang Space Center, China (XSC). Debris objects in space refer to the collection of defunct objects orbiting the Earth. Examples of debris include non-operational satellites, rocket bodies, and fragments generated from explosions, collisions, or faulty payload assembly.

Loading next visibility...
Identifier
42459, 2010-042AA
Orbit
HEO
Country
Flag of CNCN / PRC
Related business
Manufacturer
CALT
Mission
Spacecraft
Bus & Motor
Unknown
Mass
Unknown
Launch date (UTC)
2010-09-04 (16 years ago)
Launch vehicle
Unknown
Launch site
Xichang Space Center, China (XSC)
Object type
Payload
Rocket body
Debris
Shape & HBR
Unknown shape, 0.1 m
Radar Cross Section
Medium (>0.1 m² and <1 m²)

Expand to show TLE details & history
Last TLE update: 4 months ago

TLE from 4 months ago
0 CZ-3B DEB
1 42459U 10042AA  26061.80757901 -.00000288  00000-0  00000-0 0  9992
2 42459  27.4941 321.4817 7260773 238.9864  31.0593  1.87009469 76649
Epoch: 2026-03-02T19:22Z
TLE epoch observation values (Epoch: 2026-03-02T19:22:54.826Z)
Latitude
0.00042°
Longitude
-129.76404°
Altitude
14,727.773 km
Speed
4.842 km/s
True Right ascension
21h 26m 14s
True Declination
0° 00' 02"
Sunlit
Object was in daylight at epoch
Visualization orbit readout
Latitude
Unknown
Longitude
Unknown
Altitude
Unknown
Speed
Unknown
Apparent Right ascension
Unknown
Apparent Declination
Unknown
Sunlit
N/A
Visualization observer readout
Local Sidereal Time
21:37:59
Azimuth
Unknown
Elevation
Unknown
Doppler factor
Unknown
Orbital elements
Apogee altitude
41,662.081 km
Perigee altitude
1,245.685 km
Semi-major axis
27,832.02 km
Eccentricity
0.72608
Inclination
27.4941°
RAAN
321.4817°
Arg. of periapsis
238.9864°
True anomaly
120.91042°
Mean anomaly
31.0593°
Eccentric anomaly
70.20137°
Mean motion
0.46744 °/min
Orbital period
770.15 mins
BSTAR
0
Loading maneuver chart data...
Computing Atmospheric mass density...
Loading historical data...
Loading historical data...
Loading historical data...
Loading historical data...
Loading historical data...
Loading historical data...
Loading historical data...

Documentation

Showing up to 5 results
|